EJU46EF LIPQ-LIRP

Flight info

Callsign EJU46EF
Flight time 0h 36m
Altitude 19000
Route CHI M167 SUKOM Q125 OKMAP DCT PRT
Aircraft B738/M-SDE2E3FGHIRWXY/LB1

Departure

Time 2026-04-27 05:12
Airport Trieste Airport (LIPQ)

Arrival

Time 2026-04-27 05:49
Airport Pisa International Airport (LIRP)
Time Latitude Longitude Altitude Speed Heading
2026-04-27 05:00 45.82202 13.48480 46 ft 0 kts 171°
2026-04-27 05:07 45.82210 13.48478 46 ft 4 kts 171°
2026-04-27 05:07 45.82236 13.48472 45 ft 4 kts 171°
2026-04-27 05:07 45.82262 13.48470 46 ft 4 kts 204°
2026-04-27 05:08 45.82273 13.48479 46 ft 4 kts 233°
2026-04-27 05:08 45.82282 13.48507 46 ft 1 kts 259°
2026-04-27 05:08 45.82283 13.48513 46 ft 0 kts 259°
2026-04-27 05:10 45.82274 13.48438 46 ft 7 kts 261°
2026-04-27 05:11 45.82795 13.44999 45 ft 0 kts 90°
2026-04-27 05:11 45.82795 13.45183 47 ft 48 kts 90°
2026-04-27 05:11 45.82791 13.45982 45 ft 112 kts 91°
2026-04-27 05:12 45.82783 13.47371 65 ft 163 kts 90°
2026-04-27 05:12 45.82778 13.49078 474 ft 186 kts 89°
2026-04-27 05:12 45.82728 13.50999 1103 ft 205 kts 103°
2026-04-27 05:12 45.82029 13.52653 1534 ft 225 kts 141°
2026-04-27 05:13 45.80545 13.53421 2355 ft 233 kts 182°
2026-04-27 05:13 45.78987 13.52688 3135 ft 246 kts 219°
2026-04-27 05:13 45.78559 13.52124 3386 ft 250 kts 230°
2026-04-27 05:13 45.77528 13.49658 4204 ft 265 kts 244°
2026-04-27 05:14 45.76748 13.47230 5052 ft 273 kts 246°
2026-04-27 05:14 45.75990 13.44703 5944 ft 279 kts 246°
2026-04-27 05:14 45.75201 13.42142 6856 ft 283 kts 244°
2026-04-27 05:14 45.74380 13.39591 7801 ft 284 kts 243°
2026-04-27 05:15 45.73535 13.37028 8750 ft 286 kts 243°
2026-04-27 05:15 45.72683 13.34443 9667 ft 288 kts 243°
2026-04-27 05:15 45.71829 13.31834 10488 ft 294 kts 244°
2026-04-27 05:15 45.70901 13.29130 10911 ft 312 kts 239°
2026-04-27 05:16 45.69658 13.26699 11328 ft 328 kts 230°
2026-04-27 05:16 45.68154 13.24254 11788 ft 341 kts 229°
2026-04-27 05:16 45.66522 13.21659 12502 ft 347 kts 229°
2026-04-27 05:16 45.64893 13.19080 13269 ft 351 kts 229°
2026-04-27 05:17 45.63356 13.16635 13976 ft 354 kts 230°
2026-04-27 05:17 45.61709 13.14000 14721 ft 357 kts 230°
2026-04-27 05:17 45.60049 13.11341 15438 ft 360 kts 230°
2026-04-27 05:17 45.58370 13.08658 16145 ft 364 kts 230°
2026-04-27 05:18 45.56696 13.05992 16829 ft 367 kts 230°
2026-04-27 05:18 45.54989 13.03278 17502 ft 369 kts 230°
2026-04-27 05:18 45.53300 13.00596 18316 ft 367 kts 230°
2026-04-27 05:18 45.51598 12.97893 19027 ft 368 kts 230°
2026-04-27 05:19 45.49863 12.95137 19126 ft 374 kts 230°
2026-04-27 05:19 45.48135 12.92398 19132 ft 369 kts 230°
2026-04-27 05:19 45.46422 12.89687 19137 ft 367 kts 230°
2026-04-27 05:19 45.45291 12.87897 19139 ft 367 kts 230°
2026-04-27 05:20 45.43005 12.84283 19140 ft 367 kts 230°
2026-04-27 05:20 45.41873 12.82495 19141 ft 367 kts 230°
2026-04-27 05:20 45.40163 12.79795 19141 ft 367 kts 230°
2026-04-27 05:20 45.39461 12.78688 19141 ft 367 kts 230°
2026-04-27 05:21 45.37681 12.75885 19141 ft 367 kts 230°
2026-04-27 05:21 45.35978 12.73203 19141 ft 367 kts 230°
2026-04-27 05:21 45.34274 12.70523 19141 ft 367 kts 230°
2026-04-27 05:21 45.32765 12.68152 19141 ft 367 kts 230°
2026-04-27 05:22 45.31052 12.65463 19142 ft 367 kts 230°
2026-04-27 05:22 45.29334 12.62769 19141 ft 367 kts 230°
2026-04-27 05:22 45.27618 12.60080 19141 ft 367 kts 230°
2026-04-27 05:22 45.25900 12.57391 19141 ft 368 kts 230°
2026-04-27 05:23 45.24183 12.54706 19141 ft 368 kts 230°
2026-04-27 05:23 45.22553 12.52160 19141 ft 368 kts 230°
2026-04-27 05:23 45.20878 12.49545 19141 ft 368 kts 230°
2026-04-27 05:23 45.19131 12.46820 19142 ft 368 kts 230°
2026-04-27 05:24 45.17407 12.44136 19142 ft 368 kts 230°
2026-04-27 05:24 45.15686 12.41456 19141 ft 368 kts 230°
2026-04-27 05:24 45.13960 12.38774 19141 ft 368 kts 230°
2026-04-27 05:24 45.12258 12.36131 19141 ft 368 kts 230°
2026-04-27 05:25 45.10529 12.33450 19142 ft 369 kts 230°
2026-04-27 05:25 45.08820 12.30800 19142 ft 369 kts 230°
2026-04-27 05:25 45.07090 12.28189 19140 ft 370 kts 225°
2026-04-27 05:25 45.05120 12.25769 19148 ft 371 kts 223°
2026-04-27 05:26 45.03152 12.23407 19149 ft 371 kts 222°
2026-04-27 05:26 45.01254 12.21153 19149 ft 371 kts 222°
2026-04-27 05:26 44.99260 12.18792 19149 ft 371 kts 222°
2026-04-27 05:26 44.97283 12.16448 19147 ft 371 kts 222°
2026-04-27 05:27 44.95329 12.14128 19145 ft 371 kts 222°
2026-04-27 05:27 44.93352 12.11779 19142 ft 372 kts 222°
2026-04-27 05:27 44.91374 12.09429 19145 ft 372 kts 222°
2026-04-27 05:27 44.89632 12.07364 19146 ft 372 kts 222°
2026-04-27 05:28 44.87693 12.05069 19147 ft 372 kts 222°
2026-04-27 05:28 44.85711 12.02727 19144 ft 372 kts 222°
2026-04-27 05:28 44.83728 12.00384 19139 ft 372 kts 222°
2026-04-27 05:28 44.81746 11.98045 19139 ft 372 kts 222°
2026-04-27 05:29 44.79758 11.95699 19136 ft 373 kts 222°
2026-04-27 05:29 44.77766 11.93352 19134 ft 374 kts 222°
2026-04-27 05:29 44.75794 11.91031 19136 ft 374 kts 222°
2026-04-27 05:29 44.73801 11.88686 19137 ft 374 kts 222°
2026-04-27 05:30 44.71958 11.86521 19137 ft 374 kts 222°
2026-04-27 05:30 44.70037 11.84266 19140 ft 374 kts 222°
2026-04-27 05:30 44.68040 11.81925 19141 ft 374 kts 222°
2026-04-27 05:30 44.66044 11.79585 19139 ft 374 kts 222°
2026-04-27 05:31 44.64043 11.77242 19140 ft 374 kts 221°
2026-04-27 05:31 44.62049 11.74910 19138 ft 374 kts 221°
2026-04-27 05:31 44.60050 11.72576 19137 ft 374 kts 221°
2026-04-27 05:31 44.58050 11.70242 19138 ft 374 kts 221°
2026-04-27 05:32 44.56047 11.67921 19140 ft 374 kts 219°
2026-04-27 05:32 44.53832 11.65991 19146 ft 376 kts 210°
2026-04-27 05:32 44.52461 11.64994 19149 ft 376 kts 209°
2026-04-27 05:32 44.50123 11.63331 19147 ft 376 kts 208°
2026-04-27 05:33 44.47809 11.61724 19146 ft 376 kts 208°
2026-04-27 05:33 44.45541 11.60158 19146 ft 376 kts 208°
2026-04-27 05:33 44.43199 11.58526 19147 ft 376 kts 208°
2026-04-27 05:33 44.40867 11.56890 19146 ft 376 kts 208°
2026-04-27 05:34 44.38528 11.55246 19148 ft 376 kts 208°
2026-04-27 05:34 44.36190 11.53607 19152 ft 376 kts 208°
2026-04-27 05:34 44.33847 11.51972 19148 ft 376 kts 208°
2026-04-27 05:34 44.31507 11.50343 19149 ft 376 kts 208°
2026-04-27 05:35 44.29162 11.48711 19154 ft 376 kts 208°
2026-04-27 05:35 44.26822 11.47082 19162 ft 376 kts 208°
2026-04-27 05:35 44.24477 11.45449 19161 ft 376 kts 208°
2026-04-27 05:35 44.22131 11.43818 19161 ft 376 kts 208°
2026-04-27 05:36 44.19813 11.42209 19164 ft 376 kts 208°
2026-04-27 05:36 44.17880 11.40869 19164 ft 376 kts 208°
2026-04-27 05:36 44.15524 11.39236 19177 ft 376 kts 208°
2026-04-27 05:36 44.13181 11.37603 19170 ft 376 kts 209°
2026-04-27 05:37 44.10856 11.35937 19174 ft 376 kts 209°
2026-04-27 05:37 44.08537 11.34248 19169 ft 376 kts 210°
2026-04-27 05:37 44.06254 11.32589 19170 ft 366 kts 209°
2026-04-27 05:37 44.03999 11.31183 19189 ft 356 kts 202°
2026-04-27 05:38 44.01797 11.30001 19170 ft 352 kts 209°
2026-04-27 05:38 43.99851 11.28006 19136 ft 347 kts 230°
2026-04-27 05:38 43.98565 11.25180 18674 ft 349 kts 252°
2026-04-27 05:38 43.97918 11.21947 18143 ft 349 kts 258°
2026-04-27 05:39 43.97422 11.18628 17276 ft 354 kts 260°
2026-04-27 05:39 43.96977 11.15245 16408 ft 359 kts 260°
2026-04-27 05:39 43.96512 11.11945 15609 ft 361 kts 259°
2026-04-27 05:39 43.95981 11.08543 14767 ft 361 kts 258°
2026-04-27 05:40 43.95422 11.05146 14048 ft 358 kts 257°
2026-04-27 05:40 43.94888 11.01886 13668 ft 345 kts 258°
2026-04-27 05:40 43.94380 10.98691 13163 ft 336 kts 258°
2026-04-27 05:40 43.93888 10.95547 12555 ft 331 kts 258°
2026-04-27 05:41 43.93404 10.92446 11953 ft 326 kts 258°
2026-04-27 05:41 43.92932 10.89462 11162 ft 327 kts 257°
2026-04-27 05:41 43.92436 10.86351 10173 ft 334 kts 257°
2026-04-27 05:41 43.91944 10.83274 9209 ft 338 kts 257°
2026-04-27 05:42 43.91439 10.80118 8231 ft 341 kts 257°
2026-04-27 05:42 43.90927 10.76916 7541 ft 335 kts 257°
2026-04-27 05:42 43.90432 10.73829 7038 ft 322 kts 257°
2026-04-27 05:42 43.89955 10.70853 6540 ft 311 kts 257°
2026-04-27 05:43 43.89494 10.67989 6230 ft 296 kts 257°
2026-04-27 05:43 43.89074 10.65394 5897 ft 286 kts 257°
2026-04-27 05:43 43.88646 10.62749 5576 ft 276 kts 257°
2026-04-27 05:43 43.88234 10.60196 5247 ft 268 kts 257°
2026-04-27 05:44 43.87819 10.57700 4852 ft 263 kts 253°
2026-04-27 05:44 43.86970 10.55511 4549 ft 255 kts 235°
2026-04-27 05:44 43.85924 10.53555 4181 ft 253 kts 233°
2026-04-27 05:44 43.84901 10.51703 3896 ft 252 kts 231°
2026-04-27 05:45 43.83768 10.49983 3755 ft 229 kts 223°
2026-04-27 05:45 43.82561 10.48649 3423 ft 216 kts 215°
2026-04-27 05:45 43.81379 10.47574 3067 ft 195 kts 211°
2026-04-27 05:45 43.80279 10.46653 2739 ft 172 kts 212°
2026-04-27 05:46 43.79262 10.45838 2332 ft 167 kts 211°
2026-04-27 05:46 43.78280 10.45076 2220 ft 161 kts 211°
2026-04-27 05:46 43.77299 10.44446 2084 ft 151 kts 201°
2026-04-27 05:46 43.76273 10.44066 1784 ft 154 kts 196°
2026-04-27 05:47 43.75226 10.43760 1526 ft 153 kts 194°
2026-04-27 05:47 43.74195 10.43423 1258 ft 151 kts 195°
2026-04-27 05:47 43.73192 10.43084 983 ft 148 kts 197°
2026-04-27 05:47 43.72223 10.42717 760 ft 142 kts 199°
2026-04-27 05:48 43.71302 10.42247 599 ft 142 kts 205°
2026-04-27 05:48 43.70444 10.41577 358 ft 142 kts 219°
2026-04-27 05:48 43.69674 10.40773 150 ft 135 kts 216°
2026-04-27 05:48 43.68946 10.40010 20 ft 121 kts 217°
2026-04-27 05:49 43.68462 10.39516 19 ft 53 kts 217°
2026-04-27 05:49 43.68257 10.39302 20 ft 33 kts 217°
2026-04-27 05:49 43.68143 10.39172 17 ft 11 kts 236°
2026-04-27 05:49 43.68161 10.39076 16 ft 11 kts 308°
2026-04-27 05:50 43.68213 10.38986 14 ft 13 kts 305°
2026-04-27 05:50 43.68265 10.38892 14 ft 10 kts 319°
2026-04-27 05:50 43.68324 10.38890 14 ft 0 kts 31°